Location: Bun Machan
(52.1403°N, 7.3744°W)
Time: 08:33:27
(UTC+00:00)

SL-16 R/B - Pass Details

Date: 14 July 2020
Orbit: 985 x 1006 km, 99.5° (Epoch: 04 August)

Event Time Altitude Azimuth Distance (km) Brightness Sun altitude
Exits shadow 03:42:07 - 223° (SW) 3,053 4.4 -5.8°
Reaches altitude 10° 03:43:12 10° 231° (SW) 2,773 4.2 -5.7°
Maximum altitude 03:47:24 19° 273° (W) 2,217 4.0 -5.2°
Drops below altitude 10° 03:51:38 10° 316° (NW) 2,792 4.9 -4.8°
Sets 03:55:02 0° 335° (NNW) 3,749 5.8 -4.4°
